GEFSSGP_500_meanwind_282.txt.gz
Wind_Speed
5 5 5 4 5 5 5 4 4 4 4 4 4 4 5 5 4 4 5 5 5 5 5 5 5 5 6 6 7 7 8 8 8 8 8 8 8 8 7 7 7 7 7 8 8 8 8 7 7
5 5 5 4 5 5 5 4 4 4 4 4 5 5 5 5 5 5 5 6 5 5 5 5 5 6 6 7 7 7 8 8 8 8 8 8 8 8 8 8 8 8 8 8 8 8 8 8 8
6 5 5 5 5 5 5 5 4 5 5 4 5 5 5 5 5 5 5 6 6 5 6 6 6 6 6 7 8 7 7 8 8 8 9 9 9 9 9 9 9 9 9 9 9 9 9 8 8
6 6 6 6 6 6 6 5 5 5 5 5 5 5 6 6 5 5 6 6 5 5 6 6 7 7 7 7 7 7 7 8 8 9 9 9 9 9 9 9 9 10 10 10 9 9 9 9 9
7 6 6 6 5 5 5 5 5 5 6 6 5 6 6 6 6 6 6 6 6 6 6 6 6 6 7 7 7 7 7 7 8 9 9 9 9 9 10 9 9 9 9 9 9 9 9 9 10
7 6 6 6 6 6 6 6 6 6 7 6 6 6 6 6 6 6 6 6 6 6 6 6 6 7 7 7 7 7 7 7 8 9 8 9 9 10 10 9 9 9 9 10 10 10 10 10 10
7 6 6 6 6 6 6 6 6 6 6 5 6 6 6 6 6 6 5 6 6 6 6 6 7 7 7 7 7 8 8 8 8 8 9 9 9 9 10 10 10 10 10 10 11 10 10 10 11
7 7 7 6 6 6 5 5 6 5 5 5 5 5 5 6 6 6 5 5 6 6 6 7 7 7 7 7 8 8 8 7 8 8 9 8 9 9 9 9 9 9 10 10 10 10 10 10 11
7 6 6 6 5 5 5 5 6 5 5 5 5 6 6 6 6 6 5 5 6 5 6 7 7 7 7 7 7 7 7 7 8 8 8 8 8 9 9 9 10 10 10 10 10 10 10 10 10
7 6 6 5 5 5 5 6 5 5 5 6 6 6 6 5 5 5 6 5 5 6 6 7 7 8 7 7 7 7 7 8 8 8 8 8 8 8 9 9 10 10 10 10 10 10 10 10 10
6 6 6 5 5 5 6 6 5 4 4 5 5 6 5 5 5 5 5 5 5 6 6 7 7 7 7 7 7 7 8 8 8 8 8 8 8 9 9 9 9 10 11 11 10 11 11 10 11
6 6 6 5 5 5 5 5 5 4 4 4 5 5 5 4 5 5 5 6 6 6 7 7 6 7 7 7 8 8 8 8 8 8 8 9 9 9 9 10 10 10 10 10 11 11 11 11 11
6 5 6 6 6 6 6 5 4 4 4 4 4 4 4 5 5 5 5 6 6 7 7 7 7 7 7 8 8 8 8 8 8 8 8 8 8 9 9 9 9 10 11 11 10 11 12 12 11
6 5 5 6 6 6 6 5 4 4 4 4 4 4 4 5 5 5 6 6 6 7 7 7 7 8 8 8 8 8 8 9 9 9 8 8 8 8 8 9 9 10 11 11 11 11 11 11 11
5 5 5 5 5 5 5 5 5 4 4 4 4 4 4 5 5 6 6 7 7 7 7 7 7 8 8 8 8 9 9 9 9 9 9 9 9 9 9 10 10 10 11 11 11 12 11 11 11
4 4 4 4 5 5 5 5 5 5 5 5 5 5 5 5 6 6 7 7 7 7 7 7 7 8 8 8 8 8 8 9 9 9 10 10 10 10 10 10 11 11 12 12 12 12 12 12 12
5 5 4 4 5 5 5 5 5 5 5 5 6 6 6 6 7 7 7 7 7 7 7 7 7 8 9 9 9 9 9 9 9 10 10 10 10 10 10 10 11 11 11 12 12 12 12 11 11
5 5 4 5 5 5 5 5 5 5 6 6 6 6 6 7 7 7 7 7 7 7 8 8 8 8 8 9 9 9 10 9 9 10 10 10 10 10 10 11 11 11 12 12 11 11 11 11 10
6 5 5 5 5 6 6 6 6 5 6 6 6 6 6 7 7 7 7 8 8 8 8 9 9 9 10 10 10 10 10 10 10 11 11 11 11 11 11 11 11 11 11 11 11 12 11 11 10
7 7 7 6 6 7 6 6 6 6 6 6 6 6 7 7 8 8 8 9 9 9 9 9 10 10 11 11 11 11 11 11 11 12 12 12 12 12 12 12 12 12 11 11 12 12 12 11 11
8 9 8 8 7 7 7 8 8 7 7 6 6 7 7 8 8 8 9 9 10 10 10 10 11 11 12 12 12 12 12 12 12 13 13 12 12 12 12 12 12 12 13 12 12 12 12 12 11
9 9 9 9 8 8 8 8 8 7 7 6 6 7 7 8 8 8 9 10 10 10 10 11 12 12 12 12 12 12 12 12 13 13 13 13 12 13 14 14 13 13 14 14 13 12 13 13 13
10 10 10 10 10 8 8 8 7 7 7 7 7 7 7 8 8 8 9 9 10 11 11 12 12 13 13 13 13 13 13 13 13 14 14 14 15 15 15 15 15 15 15 14 14 13 13 13 13
11 11 11 11 10 9 9 9 8 8 7 7 8 8 8 8 8 8 9 10 10 11 12 13 13 14 14 14 14 14 14 14 14 15 15 15 16 16 16 16 16 16 16 15 14 14 14 14 13
11 12 12 11 10 10 11 10 8 8 8 8 8 9 9 9 9 9 10 11 12 12 13 13 14 14 14 14 15 15 15 15 15 16 16 16 17 17 17 16 16 17 17 16 15 15 15 14 14
11 12 12 12 11 11 11 10 10 9 9 9 9 10 11 11 11 11 11 12 12 12 13 14 15 15 15 16 16 16 16 16 16 17 17 17 17 17 17 17 17 17 17 17 16 16 15 15 15
11 12 12 13 12 13 12 11 11 10 10 11 11 11 12 12 12 13 13 13 13 14 14 15 15 16 16 17 17 17 17 17 18 18 18 18 18 17 17 18 18 17 17 18 18 18 17 17 16
12 13 13 13 13 14 13 11 11 11 11 12 13 13 13 14 14 14 15 15 15 15 16 16 17 17 17 17 17 17 17 18 19 18 18 19 18 18 18 18 18 18 18 18 18 19 19 18 18
13 13 14 14 15 15 15 13 11 12 12 13 14 15 14 14 15 16 16 16 16 17 17 18 18 18 18 18 17 18 18 19 19 19 19 19 19 19 19 19 19 19 19 19 19 20 20 20 20
14 14 14 16 16 16 17 16 13 13 13 14 15 16 16 16 16 17 17 18 18 18 19 19 19 19 19 19 19 19 19 19 19 19 19 19 18 19 19 19 19 20 20 20 20 20 21 22 22

GEFSSGP_500_meanwind_288.txt.gz
Wind_Speed
6 6 6 6 7 7 6 5 5 5 6 6 5 5 5 5 5 5 5 5 5 5 5 5 5 5 5 6 7 7 6 6 6 6 6 6 7 7 7 6 6 6 6 6 7 7 7 7 7
7 7 7 7 7 8 7 6 5 5 6 6 6 6 5 5 5 5 5 5 5 5 6 6 6 6 6 6 7 7 7 7 7 7 7 6 7 6 6 6 6 6 6 7 7 7 7 7 7
8 7 7 7 7 6 6 6 5 5 5 6 6 6 5 5 5 5 6 6 6 6 6 6 6 7 7 7 7 6 6 6 7 7 7 7 7 7 7 7 7 7 6 7 7 7 8 8 8
8 8 8 8 6 6 6 6 6 6 5 6 6 6 6 6 6 6 6 7 7 7 7 7 7 7 7 7 6 7 7 7 7 7 7 7 7 7 7 8 8 7 7 7 7 8 8 8 9
8 9 9 8 7 7 7 7 6 6 6 6 7 7 7 7 7 7 7 7 7 7 7 7 7 7 7 7 7 7 7 7 7 7 8 7 7 8 8 8 8 8 8 8 8 8 9 9 9
8 8 8 8 7 7 7 7 7 7 7 7 6 7 7 7 7 7 7 7 7 7 7 7 7 7 7 7 7 7 7 7 8 8 8 8 8 8 8 8 8 8 8 8 8 8 9 9 10
8 8 8 8 8 7 7 7 7 7 7 6 6 6 7 7 7 7 7 7 7 7 7 7 7 7 7 7 7 7 7 8 8 8 8 8 9 8 8 8 8 8 9 9 9 9 9 9 9
8 8 8 8 8 7 6 7 6 6 6 6 6 5 6 6 6 7 6 6 6 6 6 6 7 7 7 8 7 7 7 7 7 8 8 8 8 8 8 8 9 9 9 9 10 9 10 10 10
8 8 8 7 8 6 6 6 6 5 5 6 6 6 5 6 6 6 6 6 6 6 6 7 7 7 8 8 8 8 8 7 7 8 8 8 8 8 9 9 9 10 10 10 10 10 10 10 11
7 7 7 7 6 6 5 5 5 5 5 6 6 6 6 6 6 6 6 6 6 6 6 6 7 7 7 8 8 8 7 7 8 8 8 8 8 8 9 9 10 10 11 11 11 11 11 10 11
7 7 7 6 6 6 5 5 5 5 6 6 6 6 6 6 6 6 7 7 7 6 6 6 6 7 7 7 7 7 7 8 8 8 8 8 8 8 9 9 10 10 11 11 11 11 11 11 11
7 7 6 6 6 6 6 5 5 6 6 6 6 6 6 6 6 6 7 7 6 6 6 6 6 6 7 7 7 7 8 7 8 8 8 8 8 8 9 9 10 10 10 11 12 12 12 12 12
7 7 6 6 6 6 6 5 5 6 6 6 6 6 6 6 6 6 6 6 6 6 6 6 6 6 7 7 7 8 8 8 8 8 8 8 8 8 9 10 10 11 11 11 11 12 12 12 12
7 7 6 6 6 6 6 6 5 6 6 6 6 6 6 6 6 6 6 6 6 6 6 7 7 7 7 8 7 7 8 8 8 8 9 9 9 9 9 10 10 11 11 12 11 12 12 12 13
7 7 6 6 7 6 6 6 6 6 7 6 6 7 7 7 6 6 6 6 6 6 7 7 7 7 8 8 8 8 9 9 9 9 9 9 9 10 10 11 11 11 12 12 12 13 13 13 13
7 7 6 7 7 7 7 7 6 7 7 7 7 7 7 7 6 6 7 7 7 7 7 7 7 8 8 9 8 8 9 9 9 9 10 10 10 11 11 12 12 12 12 12 13 13 14 14 15
7 7 6 7 7 7 8 7 7 8 8 8 8 8 8 8 7 7 7 7 7 7 7 7 7 8 9 9 9 9 9 9 9 10 11 11 12 12 12 13 13 13 14 14 14 14 14 14 14
8 8 7 7 7 8 8 8 8 8 9 9 8 8 9 9 9 9 9 9 8 8 8 8 8 9 9 9 10 10 10 10 11 11 11 12 12 12 13 13 14 14 15 15 14 14 14 14 14
9 9 9 8 8 9 9 9 9 9 9 9 9 9 9 10 9 9 10 10 10 9 9 9 9 9 9 9 10 11 11 11 12 12 12 13 13 13 14 14 14 15 15 15 15 14 14 14 14
10 10 9 9 10 9 9 9 9 9 9 9 10 10 10 10 10 10 10 11 10 10 10 10 10 10 10 11 11 12 12 12 12 13 13 14 14 14 14 15 15 15 15 15 15 14 14 15 14
10 10 10 10 10 10 10 10 10 10 10 9 9 10 11 11 11 11 11 11 11 10 10 11 11 11 11 12 13 13 12 13 13 13 13 14 14 15 15 15 15 15 15 15 15 15 15 15 15
11 11 11 12 12 11 12 10 10 10 9 9 10 10 11 11 12 12 12 12 12 11 11 12 12 12 12 13 13 13 13 13 14 14 14 14 14 15 15 15 16 16 16 16 15 16 16 16 15
12 13 13 14 13 13 13 12 10 11 11 11 11 12 12 12 12 12 12 13 12 12 12 13 13 13 13 14 14 14 14 15 15 15 15 15 15 15 15 15 16 16 16 16 16 16 17 17 16
13 14 14 15 14 13 13 12 11 11 11 12 12 13 13 13 13 12 13 13 13 13 14 14 14 14 14 14 15 15 15 16 16 16 16 16 16 15 15 15 15 16 17 17 17 17 17 17 16
14 14 15 16 15 14 14 13 12 12 12 13 13 13 13 13 13 13 14 14 14 15 15 15 14 15 15 15 15 16 16 17 17 17 17 16 16 16 15 16 16 16 17 17 17 17 17 17 17
14 15 16 17 16 15 15 14 12 13 13 13 13 13 13 13 13 14 14 15 15 15 15 15 15 16 16 16 16 17 17 17 17 17 17 17 16 16 16 16 16 17 17 16 16 17 17 18 18
15 15 16 17 17 17 16 15 14 14 15 15 14 14 14 14 14 14 15 15 16 16 16 17 17 17 17 18 18 18 17 17 17 17 17 18 17 17 17 17 17 17 17 17 17 18 18 18 18
16 16 16 17 17 16 16 15 14 14 15 16 15 15 15 15 15 15 16 16 16 16 17 18 18 18 19 20 19 19 18 18 18 18 18 18 18 17 18 18 18 18 18 18 18 18 19 19 19
17 17 17 18 18 18 17 15 15 16 15 16 16 16 16 16 16 17 18 17 17 17 18 19 19 20 20 20 20 21 20 19 19 19 19 18 18 18 18 19 19 19 19 19 19 19 19 20 20
18 18 18 18 18 19 19 17 16 17 17 17 17 17 17 18 17 17 18 18 18 18 18 19 19 20 20 20 21 22 21 20 20 21 20 20 20 20 19 20 20 20 20 20 20 20 21 20 20

GEFSSGP_500_meanwind_294.txt.gz
Wind_Speed
4 4 5 4 4 4 5 5 5 5 6 5 4 4 4 4 4 4 4 4 4 4 4 4 5 4 4 4 4 5 4 4 5 4 4 4 4 4 4 4 4 4 5 5 5 5 6 5 5
5 5 5 5 5 5 6 6 6 6 6 6 5 5 5 4 4 4 5 5 5 5 5 5 5 5 5 6 5 5 6 6 5 5 5 5 5 5 6 5 5 5 6 6 6 6 7 7 7
5 5 5 5 6 7 7 6 5 6 6 6 6 5 6 5 5 5 5 5 5 5 5 6 6 6 6 6 6 6 6 6 6 5 6 6 5 5 6 6 6 6 6 6 7 7 8 8 8
5 5 6 6 7 7 8 7 6 6 7 7 6 6 5 6 5 5 5 5 6 6 6 6 6 6 6 6 6 6 6 6 6 6 6 6 6 6 6 6 6 6 6 6 6 7 7 8 8
6 6 7 7 7 7 7 7 7 6 6 7 7 6 6 6 6 6 6 6 6 6 7 6 6 6 6 6 6 7 7 6 6 6 6 6 6 7 7 7 7 7 7 7 7 8 8 8 9
6 6 6 7 8 8 8 7 7 7 7 6 6 6 7 6 6 7 6 6 6 7 7 7 7 7 6 6 6 6 6 6 7 7 7 7 7 7 7 8 8 8 8 8 8 8 8 9 9
6 6 6 7 7 8 8 7 7 7 6 6 6 6 6 6 6 6 6 6 6 6 7 6 6 7 7 7 7 7 6 6 6 7 7 7 7 7 8 8 8 9 9 9 9 9 9 9 9
6 6 6 6 7 7 7 7 7 7 7 7 6 6 6 6 6 6 6 6 6 6 6 6 6 7 7 7 7 7 7 7 7 7 6 6 7 7 7 8 8 8 9 9 10 10 10 10 10
5 5 5 6 7 7 7 7 7 7 7 7 7 6 5 5 6 6 6 6 6 6 6 6 6 6 7 7 7 7 8 7 7 6 6 7 7 7 7 8 8 8 9 10 10 11 10 10 10
5 4 5 6 6 7 8 7 6 7 6 6 6 6 6 5 5 5 5 5 6 6 6 6 6 6 7 7 7 8 8 7 8 8 7 7 7 7 8 8 8 9 10 10 10 10 11 10 10
4 4 4 5 5 5 6 6 6 6 6 6 6 6 6 6 5 5 5 5 5 6 6 6 6 6 7 7 7 7 7 8 8 8 8 8 8 8 8 9 10 10 10 11 11 11 11 11 11
5 4 4 4 4 4 5 5 5 6 7 6 6 7 7 6 6 5 5 5 6 6 6 6 7 7 7 7 7 6 7 7 8 8 8 8 9 9 9 9 10 10 10 11 11 12 12 12 13
5 5 5 5 4 4 5 5 6 6 7 7 7 7 7 7 7 7 6 6 6 6 6 6 7 7 8 7 7 7 7 7 7 8 8 9 9 10 9 9 9 10 11 11 11 12 12 13 13
4 5 5 5 5 5 5 6 6 7 7 8 8 8 8 8 8 7 7 7 7 7 7 7 8 8 8 7 7 7 7 8 8 8 9 9 9 10 10 10 10 11 11 12 12 12 12 13 14
4 5 5 5 5 6 6 6 7 7 7 8 8 8 8 8 8 8 8 7 7 7 8 8 8 8 8 8 8 8 8 8 9 9 10 10 10 10 11 11 12 12 12 12 13 13 13 14 14
5 5 5 6 6 6 6 6 7 7 7 8 8 8 8 8 8 9 8 8 8 8 9 8 8 8 8 8 8 8 8 9 9 10 10 11 11 12 12 13 13 13 13 13 13 14 14 14 14
6 6 6 7 7 7 7 7 7 8 8 8 8 8 8 8 8 9 9 9 9 9 9 9 8 9 9 9 9 9 9 9 10 10 11 12 12 12 13 13 14 14 14 14 14 14 14 14 14
7 7 7 8 8 8 7 7 7 8 8 8 8 9 9 9 10 10 10 10 10 10 10 10 10 10 9 9 10 9 9 10 11 11 12 12 13 13 13 14 15 15 15 15 15 15 15 15 14
8 9 9 9 9 9 9 8 8 9 9 9 9 9 9 10 10 11 10 10 11 11 11 11 11 11 11 11 11 11 11 12 12 12 13 13 13 14 14 14 14 14 15 15 16 15 15 15 14
10 10 10 10 10 9 10 9 9 9 9 10 10 10 11 11 11 11 11 11 11 12 12 12 11 12 12 12 12 12 13 13 13 14 14 14 14 15 15 15 15 15 15 16 15 15 15 15 14
10 10 11 11 10 10 10 10 11 10 10 10 11 11 11 12 12 12 13 13 13 13 13 13 13 13 13 13 13 13 13 13 14 14 14 15 15 15 15 15 16 16 15 15 15 14 14 14 14
11 12 12 12 11 11 11 11 12 11 11 11 11 11 12 12 13 13 13 13 14 14 14 14 14 14 14 14 14 14 14 14 15 15 15 15 16 16 16 16 17 16 15 15 14 14 14 14 14
12 12 12 12 12 12 13 12 12 13 12 12 12 12 12 12 13 13 13 14 15 15 15 15 15 15 15 15 15 15 15 15 15 16 16 16 16 16 16 16 16 16 15 15 15 14 14 14 14
13 13 13 13 14 13 13 13 13 13 13 13 13 13 13 13 13 13 14 14 15 15 15 15 16 16 16 16 16 15 15 16 16 16 17 17 17 17 17 17 16 16 15 15 15 15 15 14 14
14 13 14 14 15 15 14 14 14 14 14 14 14 14 14 14 14 15 15 15 15 15 15 16 17 17 17 17 17 16 16 17 17 18 18 18 18 18 18 17 17 17 17 16 16 15 16 16 15
14 14 14 15 15 15 14 14 14 15 15 15 15 15 15 15 15 15 15 15 15 15 16 17 17 18 18 18 18 18 18 19 19 19 19 19 19 19 18 18 18 18 18 17 17 17 17 17 17
15 14 14 15 16 15 15 14 14 14 14 14 15 15 15 15 15 15 16 16 17 17 17 18 18 19 19 19 19 19 19 19 19 19 19 19 19 19 19 18 18 18 18 17 18 18 18 18 18
15 15 15 15 15 15 15 14 14 14 15 15 15 15 15 16 16 16 17 17 18 18 18 18 18 19 20 20 20 20 20 20 20 20 20 20 20 20 19 19 19 19 18 18 18 19 19 19 19
15 15 16 16 16 16 16 15 14 15 15 16 16 16 16 16 17 17 17 17 18 19 19 19 19 20 20 20 20 21 21 21 22 21 21 21 21 20 20 20 20 19 19 19 19 20 20 20 19
16 16 16 16 16 16 16 15 15 15 15 16 16 17 17 17 17 18 18 18 18 19 19 19 20 20 21 21 21 22 22 23 23 22 23 22 22 21 21 21 21 20 20 20 20 20 21 21 21

GEFSSGP_500_meanwind_300.txt.gz
Wind_Speed
4 4 4 4 4 4 4 5 5 6 6 7 7 7 7 7 6 6 6 7 6 6 5 6 6 6 6 6 5 5 5 5 5 5 5 6 5 6 6 6 6 6 6 6 6 6 7 7 6
5 5 5 5 5 5 5 5 6 6 6 7 7 7 7 7 6 6 7 6 6 6 6 6 7 7 7 6 6 6 6 5 5 5 5 5 5 5 6 6 6 6 6 6 6 6 7 7 7
5 6 6 5 5 6 6 7 7 7 6 7 7 7 8 7 7 7 7 6 6 6 7 7 7 7 7 7 7 7 6 6 6 6 5 6 6 5 5 6 6 6 6 6 6 6 7 7 7
5 6 6 6 7 7 7 8 8 7 7 7 8 8 8 7 7 7 7 7 7 7 7 7 7 7 7 7 7 7 7 7 7 7 7 7 6 6 6 6 6 7 7 7 7 7 8 8 8
6 7 7 7 8 8 9 9 9 9 8 8 8 8 7 7 7 7 7 7 8 7 7 7 7 7 7 8 7 7 7 7 7 7 7 7 7 7 6 7 7 7 8 8 8 8 9 9 9
7 8 8 8 8 9 9 9 10 9 8 8 8 7 7 7 7 7 7 7 7 7 7 8 8 8 7 7 7 7 6 6 6 7 7 8 8 7 7 7 8 8 8 9 9 9 10 10 10
7 8 8 7 8 9 9 9 10 10 9 9 8 8 7 7 7 7 7 7 7 7 7 7 8 8 8 7 7 7 7 7 8 7 8 8 8 8 8 8 9 9 9 10 10 11 11 11 11
8 8 8 8 9 9 10 9 10 10 9 9 8 8 7 7 7 7 7 7 7 7 7 7 7 8 8 8 8 8 8 8 9 8 8 8 8 8 7 8 9 9 10 11 11 12 13 13 13
8 8 8 8 9 9 10 10 10 10 9 9 8 8 8 8 8 7 7 7 7 6 7 7 7 7 8 8 8 8 9 9 9 9 9 9 9 9 9 9 9 10 11 11 12 13 14 14 14
7 7 8 8 8 9 9 9 9 9 9 9 8 8 8 8 7 7 7 7 7 7 6 7 7 7 7 8 8 8 9 9 9 9 9 10 9 9 10 10 11 11 11 12 12 12 13 13 14
7 7 7 7 8 8 8 8 8 8 8 8 8 8 8 8 8 7 7 7 7 7 7 7 7 7 8 8 8 9 9 9 9 9 10 10 10 10 10 10 11 12 12 12 13 13 13 13 14
6 6 7 7 7 7 7 7 7 7 7 7 8 8 8 8 8 8 8 8 7 7 7 7 7 8 8 8 9 9 9 9 9 10 10 11 11 11 11 10 11 11 12 12 13 13 14 14 14
5 5 6 6 7 7 7 7 7 7 7 8 8 9 9 9 9 9 8 8 8 7 7 8 8 8 8 8 8 8 9 9 9 10 10 10 11 11 11 11 11 11 12 12 13 13 14 14 14
5 5 5 6 7 7 7 7 7 7 8 8 9 9 10 10 10 9 9 9 8 8 8 8 8 8 8 9 9 8 9 9 9 10 10 11 12 12 12 12 12 13 13 13 13 13 14 14 14
5 5 5 6 7 7 8 8 7 8 8 9 9 10 10 10 10 10 9 9 8 8 8 8 9 9 9 9 10 10 10 10 11 11 12 12 12 13 14 13 14 14 14 14 14 14 14 15 15
5 5 6 6 7 8 8 8 8 9 9 10 10 10 10 10 10 10 10 9 9 9 9 9 9 10 10 10 11 11 11 11 12 12 13 14 14 14 15 14 14 14 14 14 15 15 14 15 15
6 7 7 7 8 8 8 8 8 9 10 10 10 11 10 10 10 11 11 11 11 11 10 11 11 11 11 11 12 12 12 13 13 14 14 15 15 15 15 15 15 15 15 15 15 16 15 15 15
7 7 8 8 9 9 9 10 10 10 10 11 11 11 11 11 12 12 12 12 12 12 12 13 13 13 12 13 13 13 13 13 14 15 15 15 16 16 15 15 15 15 15 15 16 16 16 16 16
9 9 10 10 11 10 10 11 11 11 11 11 11 12 12 13 13 13 13 13 13 13 14 14 13 13 14 14 14 14 14 14 15 15 16 16 16 16 16 16 16 16 16 16 17 17 17 16 16
10 10 11 11 12 11 11 11 11 12 12 12 12 12 12 13 14 13 13 13 13 14 14 14 13 14 14 14 15 15 15 16 16 16 16 16 16 16 16 16 16 16 16 17 17 16 16 15 15
11 11 12 12 12 12 12 13 12 12 12 13 13 13 13 14 14 14 14 15 15 14 15 15 15 15 15 15 16 16 16 15 16 16 16 16 16 16 16 17 17 17 17 17 16 16 16 15 16
12 12 13 13 13 12 12 13 13 14 13 13 13 14 15 15 15 15 15 16 16 16 16 15 16 16 16 16 15 16 16 16 16 16 16 16 17 17 17 17 17 17 17 17 17 16 16 16 16
13 13 13 13 13 13 12 14 13 15 16 15 14 15 16 16 17 16 16 16 16 16 16 16 16 16 17 16 16 17 17 17 17 17 17 18 18 18 18 18 18 18 19 18 18 17 17 17 17
13 13 13 13 13 13 13 14 14 15 17 16 16 15 16 17 17 17 17 17 17 17 17 17 17 17 17 17 18 18 18 18 18 18 18 18 18 18 18 18 19 19 19 18 18 18 18 18 18
14 13 13 13 13 13 14 15 15 16 17 17 18 17 17 18 18 18 17 17 17 17 17 17 17 18 18 18 19 19 19 19 19 19 19 19 19 19 19 19 20 20 20 19 19 19 19 18 18
15 15 13 13 12 13 15 15 16 17 17 18 18 18 18 18 18 19 18 18 18 18 18 18 18 18 19 19 20 20 19 19 20 20 19 19 19 19 20 20 21 21 20 20 19 19 19 19 18
16 16 15 15 14 14 15 15 17 17 17 18 18 18 18 18 18 19 19 19 19 19 19 19 18 18 19 20 20 20 21 20 21 21 20 20 20 20 21 21 21 21 20 20 20 20 19 19 19
17 16 16 16 15 15 15 15 16 18 18 17 18 18 17 18 18 19 19 19 19 19 20 20 19 19 19 20 21 21 21 21 21 22 21 21 21 21 21 22 22 21 21 21 21 20 20 20 20
18 17 17 17 17 16 16 16 17 18 18 17 17 18 18 18 18 19 19 19 19 19 20 20 20 20 20 20 21 21 21 21 22 22 21 22 22 23 23 23 22 22 21 21 22 22 22 21 21
18 18 18 18 17 18 19 17 17 18 19 18 18 19 19 19 18 18 18 18 18 19 20 21 21 21 21 22 21 22 22 22 22 22 22 23 23 23 23 23 23 22 22 22 22 22 23 22 22

GEFSSGP_500_meanwind_306.txt.gz
Wind_Speed
5 5 5 4 5 5 5 4 4 4 3 3 4 4 4 3 4 4 3 4 4 4 5 5 6 6 5 5 5 6 6 6 6 6 6 6 6 6 6 7 7 7 7 7 7 7 7 7 8
5 5 5 5 5 6 5 5 4 4 3 4 3 4 4 4 5 4 3 3 4 4 4 5 6 6 6 6 6 7 7 7 6 6 6 7 6 6 7 7 7 8 8 8 8 8 8 7 8
5 5 5 6 6 6 5 5 4 4 4 4 4 4 5 5 5 5 5 4 4 4 4 5 5 6 6 6 6 7 7 7 7 7 6 7 8 8 8 8 8 8 8 9 9 9 9 8 8
7 6 6 7 7 6 5 5 5 4 4 5 5 5 5 5 5 5 5 5 5 5 5 5 5 5 6 6 7 7 7 7 7 8 8 8 8 8 9 9 8 8 9 9 9 9 10 10 9
7 6 7 7 7 6 6 5 5 4 5 5 5 5 5 5 4 4 5 4 4 4 5 5 5 6 6 7 7 7 7 7 8 8 8 8 8 8 9 9 9 9 9 10 10 9 10 10 10
7 7 7 7 6 5 5 5 5 5 6 5 5 5 5 4 3 3 4 3 3 4 4 5 5 5 6 7 7 8 8 8 8 8 7 7 7 8 8 9 9 9 10 10 10 10 10 11 11
7 7 7 7 7 6 5 5 5 6 5 5 5 5 5 5 4 4 3 3 4 4 4 5 6 6 6 7 7 7 7 7 7 8 7 7 7 7 8 9 9 10 11 11 11 11 11 12 12
7 7 6 6 6 6 5 5 5 5 5 6 6 5 5 5 4 4 3 3 3 4 4 5 6 6 7 7 7 7 7 7 7 8 8 8 7 8 9 9 10 10 11 11 12 12 13 13 13
6 7 6 6 6 6 5 5 5 5 5 5 5 5 5 5 4 4 3 3 4 4 5 5 6 6 7 7 7 8 8 8 8 8 8 9 9 9 10 10 11 11 11 12 12 13 13 13 14
6 6 6 6 5 5 5 5 4 5 5 5 5 5 5 4 4 4 4 4 4 5 5 5 5 6 7 7 7 7 7 8 8 9 9 9 9 10 10 11 11 12 12 12 13 13 13 13 14
6 6 6 6 6 6 5 4 4 4 4 4 5 4 4 4 4 4 4 5 5 6 5 5 5 6 6 6 6 7 7 8 8 9 9 10 10 10 10 11 11 12 12 12 13 13 13 13 14
7 7 6 6 5 5 4 4 4 3 4 3 4 4 4 5 5 5 5 5 6 6 6 6 6 6 5 6 6 7 7 8 8 9 9 10 10 10 11 11 11 12 12 12 13 13 14 14 14
6 6 6 6 6 5 5 4 4 3 4 4 4 4 5 5 6 5 6 6 6 6 7 7 6 7 7 7 7 7 8 8 8 9 9 10 10 11 11 11 11 12 12 12 12 12 13 13 14
6 7 6 6 6 6 5 5 5 5 5 5 5 5 6 6 6 6 6 6 6 7 7 8 8 8 8 8 8 8 8 8 9 9 10 10 11 11 11 11 12 12 12 12 13 13 13 13 14
7 7 6 7 7 6 6 6 6 6 6 6 6 6 7 7 7 7 7 6 7 7 8 8 9 9 9 9 10 9 9 10 10 10 11 11 11 12 12 12 12 12 12 13 13 13 13 13 14
7 6 7 7 7 7 7 7 7 6 6 7 7 7 7 7 8 7 7 7 8 8 8 9 9 10 10 11 11 10 10 10 11 12 12 12 12 13 13 13 13 13 13 13 13 14 14 14 14
7 7 7 7 8 8 8 8 8 8 7 7 7 7 7 7 8 8 8 8 9 9 9 10 10 10 11 11 11 11 11 11 12 12 13 13 14 14 14 14 14 14 14 14 14 14 14 14 14
8 7 7 7 8 8 8 7 8 7 7 7 7 7 7 8 8 9 9 10 10 10 10 11 11 11 11 11 11 12 12 12 13 14 13 13 14 14 14 14 15 15 15 15 14 14 14 14 14
9 8 8 8 7 8 8 7 8 8 8 7 7 7 7 8 9 9 10 10 10 10 11 11 12 12 11 12 12 12 13 14 14 14 13 13 13 14 14 14 14 14 14 14 14 15 15 14 14
10 9 9 9 8 9 8 8 8 8 9 9 8 8 8 8 9 9 10 10 10 10 11 12 12 12 12 13 13 14 14 14 14 15 14 14 13 13 14 14 15 15 15 15 15 15 15 15 15
10 10 10 10 11 10 10 9 9 9 9 9 8 8 9 9 10 11 11 11 11 11 12 12 13 13 13 13 13 14 14 15 15 15 14 14 14 14 14 15 15 15 15 15 16 15 15 15 15
11 10 11 11 11 11 11 9 10 9 8 8 9 9 9 10 11 12 12 11 11 12 13 13 13 13 14 14 14 14 14 15 15 14 14 15 15 14 14 15 15 15 16 16 16 16 16 15 15
11 11 12 12 12 11 11 11 9 9 8 8 9 10 11 11 11 12 13 13 13 13 13 13 14 14 15 15 15 15 15 15 15 15 14 15 15 15 15 15 15 16 16 16 17 16 16 16 15
12 12 13 14 13 13 12 12 10 9 9 9 10 11 11 12 13 13 14 14 14 14 14 14 15 15 16 16 16 15 15 15 15 15 16 16 16 15 15 15 15 16 17 17 17 17 16 16 16
13 13 14 14 14 13 13 13 11 10 10 10 11 12 12 13 14 13 14 14 14 14 14 14 15 16 16 16 17 16 16 16 16 16 16 16 16 15 15 16 16 17 18 17 17 17 17 17 17
14 14 15 15 14 13 13 13 11 11 11 11 12 12 13 13 13 13 14 14 15 15 15 15 16 16 16 17 18 17 17 16 16 16 16 16 16 15 16 16 17 18 18 18 17 17 17 17 18
14 15 16 16 15 14 14 14 13 12 12 12 13 13 13 14 13 14 15 15 15 16 16 17 17 17 17 18 18 18 17 17 17 17 17 17 16 16 16 17 18 18 18 18 18 18 18 18 18
15 15 16 16 16 16 15 14 14 13 13 13 13 14 14 14 15 15 15 16 16 16 17 18 19 19 18 18 18 18 18 18 18 18 18 17 17 17 18 18 19 19 19 19 19 19 19 19 19
16 16 16 17 18 17 17 15 14 15 15 15 15 14 14 14 15 15 16 16 16 17 18 18 19 19 19 19 19 19 19 19 19 19 19 19 19 19 19 19 19 19 20 20 20 20 19 19 19
17 17 17 18 18 18 18 16 15 15 16 16 16 15 14 15 15 16 16 16 17 17 18 18 18 19 19 20 20 20 20 20 21 21 21 20 20 20 20 21 21 20 21 21 20 20 20 20 20